Location: Unspecified
(0.0000°N, 0.0000°E)
Time: 17:59:02
(UTC+00:00)

STARLINK 1055 - Pass Details

Date: 23 January 2020
Orbit: 548 x 551 km, 53.0° (Epoch: 17 January)

Event Time Altitude Azimuth Distance (km) Brightness Sun altitude
Exits shadow 04:35:21 78° 225° (SW) 560 3.5 -22.6°
Maximum altitude 04:35:37 88° 304° (NW) 550 3.4 -22.5°
Drops below altitude 10° 04:39:43 10° 33° (NNE) 1,807 6.4 -21.6°
Sets 04:41:56 0° 34° (NNE) 2,697 7.3 -21.1°
